User: anonymous   Login
Location: Unspecified
(0.0000°N, 0.0000°E)
Time: 23:19:23
(UTC+00:00)
Language:

STARLINK-35520 - Orbit

View from above orbital plane
View from above orbital plane
View from above satellite
View from above satellite

Ground track
Ground track

The orbit is defined by the following mean orbital elements,

1 66133U          26145.11631395 +.00000000 +00000-0 +79104-3 0 00003
2 66133  53.1606  44.4944 0001129  80.8554 279.2575 15.30206926    05
Epoch (UTC): 25 May 2026 02:47:29
Eccentricity: 0.0001129
inclination: 53.1606°
perigee height: 474 km
apogee height: 476 km
right ascension of ascending node: 44.4944°
argument of perigee: 80.8554°
revolutions per day: 15.30206926
mean anomaly at epoch: 279.2575°

The dashed part of the orbit path shows where the satellite is in the earth's shadow,  

DLR